IRIDIUM 23

Last updated on Wed Nov 29 2017 00:19:02 GMT+0000 (Coordinated Universal Time)

1 24906U 97043D 17332.53363657 .00000090 00000-0 25071-4 0 9996 2 24906 86.3989 186.8243 0001906 90.1951 330.8704 14.34219516 61399

Satellite not in orbit

IRIDIUM 23